WetterOnline ( https://www.wetteronline.de )

Wetter aktuell Ulm

Aktuelles Wetter: Ulm-Mähringen (592m)

6-stündlich | Neueste Meldungen
Ortszeit Temperatur Wetter
Mo, 26.02. 7:00 2.7° C leicht bewölkt
Mo, 26.02. 1:00 2.8° C bedeckt
So, 25.02. 19:00 5.2° C wolkenlos
So, 25.02. 13:00 7.8° C wolkenlos
So, 25.02. 7:00 -0.4° C wolkenlos
So, 25.02. 1:00 0.4° C bedeckt
Sa, 24.02. 19:00 1.6° C bewölkt
Sa, 24.02. 13:00 7.2° C leicht bewölkt
Ortszeit Temperatur Wetter
Mo, 26.02. 12:00 7.9° C bedeckt
Mo, 26.02. 11:50 7.9° C bedeckt
Mo, 26.02. 11:40 7.7° C bedeckt
Mo, 26.02. 11:30 6.4° C bedeckt
Mo, 26.02. 11:20 6.4° C bedeckt
Mo, 26.02. 11:10 5.9° C bedeckt
Mo, 26.02. 11:00 5.3° C bedeckt
Mo, 26.02. 10:30 4.2° C bedeckt
Mo, 26.02. 10:00 3.6° C bedeckt
Mo, 26.02. 9:30 3.5° C bewölkt
Mo, 26.02. 9:00 3.1° C wolkig
Ortszeit Relative Feuchte Sichtweite
Mo, 26.02. 7:00 87% 35 km
Mo, 26.02. 1:00 88% 55 km
So, 25.02. 19:00 66% >70 km
So, 25.02. 13:00 59% 65 km
So, 25.02. 7:00 99% 20 km
So, 25.02. 1:00 95% 50 km
Sa, 24.02. 19:00 91% >70 km
Sa, 24.02. 13:00 62% 65 km
Ortszeit Relative Feuchte Sichtweite
Mo, 26.02. 12:00 66% 45 km
Mo, 26.02. 11:50 66% -
Mo, 26.02. 11:40 68% -
Mo, 26.02. 11:30 74% 40 km
Mo, 26.02. 11:20 74% -
Mo, 26.02. 11:10 74% -
Mo, 26.02. 11:00 79% 40 km
Mo, 26.02. 10:30 78% 35 km
Mo, 26.02. 10:00 84% 28 km
Mo, 26.02. 9:30 84% 27 km
Mo, 26.02. 9:00 85% 24 km
Ortszeit Niederschlagsmenge Niederschlagsart
Mo, 26.02. 7:00 0.1 l/m2 in 12 Std. Regen
Mo, 26.02. 1:00 0.0 l/m2 in 6 Std. -
So, 25.02. 19:00 0.0 l/m2 in 12 Std. -
So, 25.02. 13:00 0.0 l/m2 in 6 Std. -
So, 25.02. 7:00 0.0 l/m2 in 12 Std. -
So, 25.02. 1:00 0.0 l/m2 in 6 Std. -
Sa, 24.02. 19:00 0.1 l/m2 in 12 Std. Regen
Sa, 24.02. 13:00 0.0 l/m2 in 6 Std. -
Ortszeit Niederschlagsmenge Niederschlagsart
Mo, 26.02. 12:00 0.0 l/m2 in 1 Std. -
Mo, 26.02. 11:50 keine Meldung -
Mo, 26.02. 11:40 keine Meldung -
Mo, 26.02. 11:30 0.0 l/m2 in 30 Min -
Mo, 26.02. 11:20 keine Meldung -
Mo, 26.02. 11:10 keine Meldung -
Mo, 26.02. 11:00 0.0 l/m2 in 1 Std. -
Mo, 26.02. 10:30 0.0 l/m2 in 30 Min -
Mo, 26.02. 10:00 0.0 l/m2 in 1 Std. -
Mo, 26.02. 9:30 0.0 l/m2 in 30 Min -
Mo, 26.02. 9:00 0.0 l/m2 in 1 Std. -
Ortszeit Stärke Spitze Richtung
km/h Bft. km/h Grad Sektor
Mo, 26.02. 7:00 6 1 33 60° NO
Mo, 26.02. 1:00 7 2 14 70° O
So, 25.02. 19:00 11 2 25 90° O
So, 25.02. 13:00 11 2 25 160° S
So, 25.02. 7:00 4 1 11 170° S
So, 25.02. 1:00 4 1 11 190° S
Sa, 24.02. 19:00 6 1 39 340° N
Sa, 24.02. 13:00 13 3 31 200° S
Ortszeit Stärke Spitze Richtung
km/h Bft. km/h Grad Sektor
Mo, 26.02. 12:00 7 2 14 50° NO
Mo, 26.02. 11:50 7 2 - 50° NO
Mo, 26.02. 11:40 7 2 - 40° NO
Mo, 26.02. 11:30 9 2 15 30° NO
Mo, 26.02. 11:20 9 2 - 30° NO
Mo, 26.02. 11:10 11 2 - 20° N
Mo, 26.02. 11:00 9 2 13 10° N
Mo, 26.02. 10:30 7 2 11 350° N
Mo, 26.02. 10:00 6 1 9 10° N
Mo, 26.02. 9:30 0 0 7 - -
Mo, 26.02. 9:00 4 1 14 110° O
Ortszeit Untergrenze Bedeckung Gattung
total tief tief mittel hoch
Mo, 26.02. 7:00 1500 m 3/8 3/8 - - -
Mo, 26.02. 1:00 1500 m 8/8 8/8 - - -
So, 25.02. 19:00 - 0/8 0/8 - - -
So, 25.02. 13:00 - 0/8 0/8 - - -
So, 25.02. 7:00 - 0/8 0/8 - - -
So, 25.02. 1:00 4800 m 8/8 8/8 - - -
Sa, 24.02. 19:00 1350 m 8/8 4/8 - - -
Sa, 24.02. 13:00 960 m 2/8 2/8 - - -
Ortszeit Bedeckungsgrad in Achtel und Wolkenuntergrenze
Mo, 26.02. 12:00 6(1800m) 8(2700m) 8(6300m)
Mo, 26.02. 11:50 6(1800m) 8(2700m) 8(6300m)
Mo, 26.02. 11:40 8
Mo, 26.02. 11:30 4(1500m) 7(1800m) 8(2700m)
Mo, 26.02. 11:20 4(1500m) 7(1800m) 8(2700m)
Mo, 26.02. 11:10 8
Mo, 26.02. 11:00 8(1800m)
Mo, 26.02. 10:30 8(1800m)
Mo, 26.02. 10:00 8(1800m)
Mo, 26.02. 9:30 7(1800m) 7(2400m) 8(4800m)
Mo, 26.02. 9:00 2(1800m) 8(3000m) 8(4800m)
Ortszeit Luftdruck NN (hPa) Tendenz (hPa in 3 Std.)
Mo, 26.02. 7:00 1000 - 0,1
Mo, 26.02. 1:00 1001 - 0,6
So, 25.02. 19:00 1003 - 1,4
So, 25.02. 13:00 1006 - 1,6
So, 25.02. 7:00 1010 - 0,5
So, 25.02. 1:00 1010 - 0,1
Sa, 24.02. 19:00 1009 + 2,0
Sa, 24.02. 13:00 1005 + 0,8
Ortszeit Luftdruck NN (hPa) Tendenz (hPa in 3 Std.)
Mo, 26.02. 12:00 1001 + 0,4
Mo, 26.02. 11:50 1001 keine Meldung
Mo, 26.02. 11:40 1001 keine Meldung
Mo, 26.02. 11:30 1001 + 1,0
Mo, 26.02. 11:20 1001 keine Meldung
Mo, 26.02. 11:10 1001 keine Meldung
Mo, 26.02. 11:00 1001 + 1,1
Mo, 26.02. 10:30 1001 + 0,9
Mo, 26.02. 10:00 1001 + 1,5
Mo, 26.02. 9:30 1001 + 1,4
Mo, 26.02. 9:00 1001 + 1,3
Ortszeit Schneehöhe (cm)
Mo, 26.02. 7:00 0
Mo, 26.02. 1:00 0
So, 25.02. 19:00 0
So, 25.02. 13:00 0
So, 25.02. 7:00 0
So, 25.02. 1:00 0
Sa, 24.02. 19:00 0
Sa, 24.02. 13:00 0
Ortszeit Schneehöhe (cm)
Mo, 26.02. 12:00 0
Mo, 26.02. 11:50 0
Mo, 26.02. 11:40 -
Mo, 26.02. 11:30 0
Mo, 26.02. 11:20 0
Mo, 26.02. 11:10 -
Mo, 26.02. 11:00 0
Mo, 26.02. 10:30 0
Mo, 26.02. 10:00 0
Mo, 26.02. 9:30 0
Mo, 26.02. 9:00 0
Link zu dieser Seite / Seite empfehlen

Das Wetter in ...